Regional Weather Roundup
Issued by NWS Kansas City/Pleasant Hill, MO

Current Version | Previous Version | Graphics & Text | Print | Product List | Glossary On
Versions: 1 2 3 4 5 6 7 8 9 10 11 12 13 14 15 16 17 18 19 20 21 22 23 24 25 26 27 28 29 30 31 32 33 34 35 36 37 38 39 40 41 42 43 44 45 46 47 48 49 50
000
ASUS43 KEAX 131415
RWREAX

WEATHER ROUNDUP FOR EASTERN KANSAS AND NORTHWEST MISSOURI
NATIONAL WEATHER SERVICE KANSAS CITY/PLEASANT HILL MO
900 AM CDT THU MAY 13 2021

KSZ040-057-103>105-MOZ028-029-037-043-131500-
...KANSAS CITY METROPOLITAN AREA...

CITY           SKY/WX    TMP DP  RH WIND       PRES   REMARKS
K.C. INTL      SUNNY     58  31  35 SE10      30.43R
K.C. DOWNTOWN  SUNNY     55  36  48 VRB3      30.42S
LEES SUMMIT    SUNNY     55  33  43 SE8       30.43R
OLATHE - IXD   SUNNY     55  33  43 SE8       30.42S
OLATHE - OJC   SUNNY     54  35  48 SE8       30.42R
LAWRENCE       SUNNY     53  41  63 SE5       30.42S

$$

MOZ001>008-011>017-020>025-030>033-038>040-044>046-053-054-131500-
...NORTHERN AND CENTRAL MISSOURI...

CITY           SKY/WX    TMP DP  RH WIND       PRES   REMARKS
ST. JOSEPH     SUNNY     57  33  40 S7        30.43S
MOSBY          SUNNY     52  34  50 CALM      30.44S
HARRISONVILLE  SUNNY     55  37  50 SE5       30.45R
WHITEMAN AFB   SUNNY     56  36  46 SE6       30.39S
CLINTON        SUNNY     55  39  54 E8        30.42S
SEDALIA        SUNNY     55  38  52 SE6       30.44S
MARSHALL       SUNNY     54  37  54 SE7       30.45S
CHILLICOTHE      N/A     56  33  42 S5        30.45S
MOBERLY        SUNNY     55  32  41 SE3       30.45S
KIRKSVILLE     SUNNY     56  36  47 S3        30.45S

$$

MOZ041-047>049-056>058-063>065-088>090-097-131500-
...EASTERN AND SOUTHERN MISSOURI...

CITY           SKY/WX    TMP DP  RH WIND       PRES   REMARKS
ST. LOUIS INTL MOSUNNY   59  36  42 NE3       30.43S
SPIRIT OF STL  SUNNY     54  39  57 VRB3      30.43S
COLUMBIA       SUNNY     57  36  45 SE8       30.44R
JEFFERSON CITY SUNNY     53  39  59 CALM      30.44S
MEXICO         SUNNY     54  37  54 E3        30.44S
HANNIBAL       SUNNY     59  30  33 CALM      30.45S
ROLLA          SUNNY     54  36  50 E6        30.43R
LEBANON        SUNNY     54  34  47 E6        30.43R
OSAGE BEACH    SUNNY     53  37  54 VRB3      30.44S
SPRINGFIELD    PTSUNNY   56  34  43 E9        30.39S
BRANSON        SUNNY     57  36  44 E7        30.41R
JOPLIN         SUNNY     57  39  51 E7        30.39S
WEST PLAINS    SUNNY     57  35  43 E7        30.41R
SIKESTON       SUNNY     59  41  51 E7        30.39R

$$

IAZ060-094-KSZ022-034>040-054-083-096-NEZ052-066-093-131500-
...KANSAS...SOUTHEAST NEBRASKA AND IOWA...

CITY           SKY/WX    TMP DP  RH WIND       PRES   REMARKS
TOPEKA         SUNNY     52  40  63 E3        30.42R
MANHATTAN      SUNNY     52  41  66 CALM      30.40S
EMPORIA        SUNNY     54  38  54 E7        30.39S
OTTAWA         FAIR      55  41  58 SE9       30.40S
CHANUTE        SUNNY     55  38  52 E9        30.39S
SALINA         CLOUDY    52  42  69 S6        30.39S
WICHITA        MOSUNNY   57  37  47 SE3       30.38R
OMAHA          MOSUNNY   54  33  45 S13       30.40S
LINCOLN        SUNNY     56  36  47 S8        30.39S
FALLS CITY     SUNNY     53  36  52 S7        30.42R
LAMONI           N/A     55  34  45 S8        30.43S
DES MOINES     MOSUNNY   55  35  47 SW7       30.44R

$$




USA.gov is the U.S. government's official web portal to all federal, state and local government web resources and services.